UAL283 KSAN-KDEN

Flight info

Callsign UAL283
Flight time 1h 47m
Altitude 39000
Route ZZOOO4 MTBAL EED J236 TBC CRUDD TBARR4
Aircraft B38M/M-SDE1FGHILORVWXY/HB1

Departure

Time 2026-05-05 20:02
Airport San Diego International Airport (KSAN)

Arrival

Time 2026-05-05 21:50
Airport Denver International Airport (KDEN)
Time Latitude Longitude Altitude Speed Heading
2026-05-05 19:47 32.73390 -117.20463 25 ft 0 kts 87°
2026-05-05 19:50 32.73389 -117.20479 29 ft 2 kts 87°
2026-05-05 19:50 32.73389 -117.20498 28 ft 2 kts 87°
2026-05-05 19:50 32.73388 -117.20517 28 ft 2 kts 87°
2026-05-05 19:51 32.73387 -117.20536 28 ft 2 kts 87°
2026-05-05 19:51 32.73387 -117.20542 28 ft 0 kts 87°
2026-05-05 19:56 32.73387 -117.20541 24 ft 1 kts 82°
2026-05-05 19:56 32.73410 -117.20534 27 ft 8 kts
2026-05-05 19:56 32.73489 -117.20533 22 ft 11 kts 18°
2026-05-05 19:57 32.73544 -117.20465 20 ft 13 kts 51°
2026-05-05 19:57 32.73584 -117.20373 21 ft 12 kts 84°
2026-05-05 19:57 32.73572 -117.20284 28 ft 10 kts 108°
2026-05-05 19:57 32.73553 -117.20202 27 ft 11 kts 105°
2026-05-05 19:58 32.73531 -117.20111 26 ft 13 kts 107°
2026-05-05 19:58 32.73504 -117.20003 26 ft 15 kts 106°
2026-05-05 19:58 32.73474 -117.19881 28 ft 16 kts 107°
2026-05-05 19:58 32.73443 -117.19747 27 ft 18 kts 106°
2026-05-05 19:59 32.73405 -117.19596 28 ft 20 kts 107°
2026-05-05 19:59 32.73366 -117.19435 28 ft 21 kts 106°
2026-05-05 19:59 32.73321 -117.19254 27 ft 24 kts 106°
2026-05-05 19:59 32.73276 -117.19058 27 ft 25 kts 107°
2026-05-05 20:00 32.73228 -117.18860 28 ft 25 kts 105°
2026-05-05 20:00 32.73179 -117.18657 32 ft 26 kts 106°
2026-05-05 20:00 32.73126 -117.18441 32 ft 28 kts 107°
2026-05-05 20:00 32.73070 -117.18213 31 ft 30 kts 106°
2026-05-05 20:01 32.73013 -117.17979 29 ft 25 kts 105°
2026-05-05 20:01 32.72978 -117.17837 27 ft 14 kts 109°
2026-05-05 20:01 32.72952 -117.17717 23 ft 16 kts 89°
2026-05-05 20:01 32.72993 -117.17620 27 ft 11 kts
2026-05-05 20:02 32.73047 -117.17709 25 ft 33 kts 287°
2026-05-05 20:02 32.73188 -117.18276 29 ft 108 kts 286°
2026-05-05 20:02 32.73422 -117.19296 439 ft 136 kts 284°
2026-05-05 20:02 32.73647 -117.20316 1456 ft 116 kts 287°
2026-05-05 20:03 32.73895 -117.21282 1707 ft 140 kts 285°
2026-05-05 20:03 32.74204 -117.22535 1800 ft 169 kts 285°
2026-05-05 20:03 32.74511 -117.23789 2732 ft 153 kts 285°
2026-05-05 20:03 32.74814 -117.25027 3332 ft 161 kts 285°
2026-05-05 20:04 32.75136 -117.26355 3785 ft 174 kts 285°
2026-05-05 20:04 32.75487 -117.27799 4167 ft 190 kts 285°
2026-05-05 20:04 32.75868 -117.29370 4547 ft 206 kts 285°
2026-05-05 20:04 32.76282 -117.31074 4968 ft 222 kts 285°
2026-05-05 20:05 32.76494 -117.32911 5593 ft 230 kts 263°
2026-05-05 20:05 32.75965 -117.34713 6336 ft 237 kts 237°
2026-05-05 20:05 32.74757 -117.36031 7039 ft 246 kts 209°
2026-05-05 20:05 32.73076 -117.36506 7737 ft 256 kts 179°
2026-05-05 20:06 32.71365 -117.35870 8410 ft 266 kts 146°
2026-05-05 20:06 32.70018 -117.34330 9070 ft 272 kts 133°
2026-05-05 20:06 32.68804 -117.32579 9742 ft 276 kts 130°
2026-05-05 20:06 32.67587 -117.30794 10368 ft 280 kts 131°
2026-05-05 20:07 32.66323 -117.29019 10999 ft 283 kts 132°
2026-05-05 20:07 32.65034 -117.27235 11672 ft 287 kts 132°
2026-05-05 20:07 32.63756 -117.25399 12295 ft 291 kts 125°
2026-05-05 20:07 32.63016 -117.23205 12870 ft 296 kts 99°
2026-05-05 20:08 32.62742 -117.20740 13224 ft 308 kts 95°
2026-05-05 20:08 32.62555 -117.18138 13485 ft 325 kts 94°
2026-05-05 20:08 32.62336 -117.15402 13693 ft 342 kts 96°
2026-05-05 20:08 32.62061 -117.12542 14025 ft 354 kts 95°
2026-05-05 20:09 32.62198 -117.09618 14480 ft 360 kts 74°
2026-05-05 20:09 32.63003 -117.06791 14989 ft 364 kts 68°
2026-05-05 20:09 32.63935 -117.04039 15504 ft 368 kts 66°
2026-05-05 20:09 32.64911 -117.01208 16027 ft 372 kts 67°
2026-05-05 20:10 32.65844 -116.98329 16562 ft 375 kts 68°
2026-05-05 20:10 32.66596 -116.95357 17097 ft 380 kts 82°
2026-05-05 20:10 32.66760 -116.92216 17638 ft 383 kts 88°
2026-05-05 20:10 32.66810 -116.89041 18174 ft 386 kts 89°
2026-05-05 20:11 32.66852 -116.85847 18642 ft 389 kts 88°
2026-05-05 20:11 32.66934 -116.82619 19086 ft 392 kts 87°
2026-05-05 20:11 32.67284 -116.79422 19545 ft 393 kts 72°
2026-05-05 20:11 32.68422 -116.76534 19973 ft 392 kts 53°
2026-05-05 20:12 32.70272 -116.74185 20423 ft 390 kts 34°
2026-05-05 20:12 32.72618 -116.72615 20871 ft 387 kts 21°
2026-05-05 20:12 32.75103 -116.71376 21294 ft 389 kts 20°
2026-05-05 20:12 32.77628 -116.70190 21730 ft 391 kts 19°
2026-05-05 20:13 32.80160 -116.68972 22169 ft 394 kts 20°
2026-05-05 20:13 32.82689 -116.67712 22593 ft 396 kts 20°
2026-05-05 20:13 32.85241 -116.66447 23014 ft 398 kts 20°
2026-05-05 20:13 32.87811 -116.65195 23422 ft 401 kts 19°
2026-05-05 20:14 32.90400 -116.63932 23781 ft 403 kts 20°
2026-05-05 20:14 32.92969 -116.62669 24103 ft 406 kts 20°
2026-05-05 20:14 32.95583 -116.61380 24396 ft 409 kts 20°
2026-05-05 20:14 32.98227 -116.60081 24690 ft 412 kts 19°
2026-05-05 20:15 33.00886 -116.58772 24981 ft 416 kts 20°
2026-05-05 20:15 33.03531 -116.57346 25264 ft 419 kts 20°
2026-05-05 20:15 33.06223 -116.55972 25527 ft 422 kts 19°
2026-05-05 20:15 33.08940 -116.54595 25781 ft 426 kts 20°
2026-05-05 20:16 33.11668 -116.53161 26035 ft 431 kts 20°
2026-05-05 20:16 33.14416 -116.51699 26306 ft 434 kts 20°
2026-05-05 20:16 33.17194 -116.50245 26553 ft 438 kts 20°
2026-05-05 20:16 33.19967 -116.48806 26827 ft 442 kts 20°
2026-05-05 20:17 33.22794 -116.47327 27109 ft 445 kts 20°
2026-05-05 20:17 33.25642 -116.45827 27372 ft 449 kts 20°
2026-05-05 20:17 33.28510 -116.44318 27649 ft 452 kts 20°
2026-05-05 20:17 33.31398 -116.42805 27975 ft 454 kts 20°
2026-05-05 20:18 33.34301 -116.41280 28297 ft 457 kts 20°
2026-05-05 20:18 33.37197 -116.39693 28617 ft 461 kts 26°
2026-05-05 20:18 33.39858 -116.37508 28914 ft 468 kts 39°
2026-05-05 20:18 33.42088 -116.34715 29205 ft 474 kts 52°
2026-05-05 20:19 33.44043 -116.31518 29507 ft 477 kts 53°
2026-05-05 20:19 33.45972 -116.28270 29783 ft 480 kts 54°
2026-05-05 20:19 33.47914 -116.24997 30007 ft 484 kts 53°
2026-05-05 20:19 33.49891 -116.21710 30194 ft 488 kts 53°
2026-05-05 20:20 33.51886 -116.18399 30381 ft 492 kts 53°
2026-05-05 20:20 33.53881 -116.15055 30577 ft 496 kts 53°
2026-05-05 20:20 33.55894 -116.11670 30787 ft 499 kts 53°
2026-05-05 20:20 33.57920 -116.08273 31004 ft 503 kts 53°
2026-05-05 20:21 33.59941 -116.04904 31227 ft 506 kts 51°
2026-05-05 20:21 33.62226 -116.01696 31472 ft 507 kts 46°
2026-05-05 20:21 33.64614 -115.98562 31763 ft 509 kts 46°
2026-05-05 20:21 33.67012 -115.95430 32041 ft 511 kts 46°
2026-05-05 20:22 33.69406 -115.92258 32299 ft 513 kts 46°
2026-05-05 20:22 33.71801 -115.89062 32557 ft 516 kts 46°
2026-05-05 20:22 33.74217 -115.85858 32802 ft 519 kts 46°
2026-05-05 20:22 33.76651 -115.82644 33092 ft 520 kts 46°
2026-05-05 20:23 33.79078 -115.79425 33444 ft 520 kts 46°
2026-05-05 20:23 33.81506 -115.76189 33785 ft 521 kts 46°
2026-05-05 20:23 33.83934 -115.72955 34090 ft 522 kts 46°
2026-05-05 20:23 33.86337 -115.69760 34379 ft 522 kts 46°
2026-05-05 20:24 33.88772 -115.66519 34687 ft 522 kts 46°
2026-05-05 20:24 33.91202 -115.63275 34984 ft 522 kts 46°
2026-05-05 20:24 33.93635 -115.60024 35263 ft 523 kts 46°
2026-05-05 20:24 33.96072 -115.56769 35552 ft 523 kts 46°
2026-05-05 20:25 33.98506 -115.53514 35897 ft 522 kts 46°
2026-05-05 20:25 34.00935 -115.50261 36236 ft 521 kts 46°
2026-05-05 20:25 34.03357 -115.47015 36551 ft 521 kts 47°
2026-05-05 20:25 34.05748 -115.43807 36847 ft 521 kts 47°
2026-05-05 20:26 34.08170 -115.40556 37137 ft 521 kts 47°
2026-05-05 20:26 34.10587 -115.37309 37422 ft 520 kts 47°
2026-05-05 20:26 34.13004 -115.34057 37707 ft 520 kts 47°
2026-05-05 20:26 34.15417 -115.30809 37984 ft 520 kts 47°
2026-05-05 20:27 34.17830 -115.27557 38257 ft 520 kts 47°
2026-05-05 20:27 34.20243 -115.24303 38528 ft 520 kts 47°
2026-05-05 20:27 34.22653 -115.21049 38743 ft 520 kts 47°
2026-05-05 20:27 34.25028 -115.17839 38885 ft 518 kts 47°
2026-05-05 20:28 34.27417 -115.14608 38887 ft 513 kts 47°
2026-05-05 20:28 34.32151 -115.08197 38886 ft 508 kts 47°
2026-05-05 20:29 34.36833 -115.01845 38878 ft 505 kts 47°
2026-05-05 20:29 34.41511 -114.95486 38872 ft 505 kts 47°
2026-05-05 20:30 34.46176 -114.89132 38873 ft 505 kts 47°
2026-05-05 20:30 34.50810 -114.82810 38878 ft 505 kts 47°
2026-05-05 20:31 34.55474 -114.76436 38881 ft 505 kts 47°
2026-05-05 20:31 34.60132 -114.70058 38895 ft 505 kts 47°
2026-05-05 20:32 34.64784 -114.63676 38915 ft 504 kts 47°
2026-05-05 20:32 34.69400 -114.57332 38922 ft 500 kts 47°
2026-05-05 20:33 34.73972 -114.51037 38918 ft 499 kts 47°
2026-05-05 20:33 34.78030 -114.44233 38916 ft 499 kts 61°
2026-05-05 20:34 34.81297 -114.36788 38862 ft 499 kts 62°
2026-05-05 20:34 34.84604 -114.29321 38860 ft 502 kts 62°
2026-05-05 20:35 34.87887 -114.21867 38849 ft 503 kts 63°
2026-05-05 20:35 34.91186 -114.14357 38841 ft 503 kts 62°
2026-05-05 20:36 34.94485 -114.06845 38836 ft 503 kts 62°
2026-05-05 20:36 34.97784 -113.99300 38830 ft 504 kts 62°
2026-05-05 20:37 35.01084 -113.91748 38826 ft 505 kts 63°
2026-05-05 20:37 35.04378 -113.84186 38837 ft 504 kts 62°
2026-05-05 20:38 35.07654 -113.76653 38834 ft 501 kts 63°
2026-05-05 20:38 35.10897 -113.69176 38825 ft 502 kts 63°
2026-05-05 20:39 35.14157 -113.61646 38816 ft 502 kts 63°
2026-05-05 20:39 35.17410 -113.54112 38831 ft 502 kts 63°
2026-05-05 20:40 35.20666 -113.46557 38821 ft 502 kts 63°
2026-05-05 20:40 35.23917 -113.38996 38819 ft 505 kts 63°
2026-05-05 20:41 35.27186 -113.31376 38817 ft 506 kts 63°
2026-05-05 20:41 35.30454 -113.23742 38819 ft 506 kts 63°
2026-05-05 20:42 35.33697 -113.16147 38822 ft 507 kts 63°
2026-05-05 20:42 35.36956 -113.08497 38812 ft 507 kts 63°
2026-05-05 20:43 35.40223 -113.00812 38820 ft 509 kts 63°
2026-05-05 20:43 35.43486 -112.93117 38825 ft 509 kts 63°
2026-05-05 20:44 35.46745 -112.85416 38819 ft 509 kts 63°
2026-05-05 20:44 35.49999 -112.77709 38822 ft 507 kts 64°
2026-05-05 20:45 35.54827 -112.66238 38818 ft 506 kts 64°
2026-05-05 20:45 35.58055 -112.58550 38813 ft 506 kts 64°
2026-05-05 20:46 35.61272 -112.50866 38811 ft 506 kts 64°
2026-05-05 20:46 35.64488 -112.43169 38819 ft 507 kts 64°
2026-05-05 20:47 35.67720 -112.35414 38856 ft 510 kts 64°
2026-05-05 20:47 35.70928 -112.27702 38901 ft 510 kts 64°
2026-05-05 20:48 35.74156 -112.19920 38946 ft 510 kts 64°
2026-05-05 20:48 35.77379 -112.12131 38982 ft 511 kts 64°
2026-05-05 20:49 35.80616 -112.04291 38988 ft 515 kts 64°
2026-05-05 20:49 35.83859 -111.96420 38982 ft 515 kts 64°
2026-05-05 20:50 35.87078 -111.88586 38883 ft 515 kts 64°
2026-05-05 20:50 35.90312 -111.80697 38838 ft 515 kts 64°
2026-05-05 20:51 35.93545 -111.72789 38796 ft 516 kts 64°
2026-05-05 20:51 35.96767 -111.64894 38779 ft 514 kts 64°
2026-05-05 20:52 35.99974 -111.57012 38775 ft 514 kts 64°
2026-05-05 20:52 36.03157 -111.49174 38777 ft 514 kts 64°
2026-05-05 20:53 36.06353 -111.41281 38772 ft 514 kts 64°
2026-05-05 20:53 36.09544 -111.33384 38782 ft 514 kts 64°
2026-05-05 20:54 36.12791 -111.25533 38801 ft 514 kts 61°
2026-05-05 20:54 36.16285 -111.17818 38803 ft 514 kts 61°
2026-05-05 20:55 36.19772 -111.10145 38797 ft 517 kts 61°
2026-05-05 20:55 36.23284 -111.02374 38799 ft 518 kts 62°
2026-05-05 20:56 36.26800 -110.94587 38803 ft 518 kts 62°
2026-05-05 20:56 36.30307 -110.86800 38804 ft 518 kts 62°
2026-05-05 20:57 36.33789 -110.79047 38807 ft 517 kts 61°
2026-05-05 20:57 36.37236 -110.71359 38813 ft 516 kts 62°
2026-05-05 20:58 36.40714 -110.63581 38812 ft 515 kts 62°
2026-05-05 20:58 36.44183 -110.55805 38812 ft 515 kts 62°
2026-05-05 20:59 36.47645 -110.48026 38809 ft 515 kts 62°
2026-05-05 20:59 36.51094 -110.40260 38791 ft 519 kts 62°
2026-05-05 21:00 36.54578 -110.32395 38779 ft 519 kts 62°
2026-05-05 21:00 36.58060 -110.24516 38779 ft 520 kts 62°
2026-05-05 21:01 36.61542 -110.16617 38768 ft 520 kts 62°
2026-05-05 21:01 36.65021 -110.08709 38762 ft 523 kts 62°
2026-05-05 21:02 36.68489 -110.00804 38747 ft 524 kts 62°
2026-05-05 21:02 36.71979 -109.92830 38739 ft 524 kts 62°
2026-05-05 21:03 36.75463 -109.84852 38742 ft 524 kts 62°
2026-05-05 21:03 36.78943 -109.76862 38731 ft 525 kts 62°
2026-05-05 21:04 36.82430 -109.68836 38726 ft 526 kts 62°
2026-05-05 21:04 36.85889 -109.60856 38726 ft 526 kts 62°
2026-05-05 21:05 36.89366 -109.52815 38730 ft 526 kts 62°
2026-05-05 21:05 36.92840 -109.44760 38717 ft 527 kts 62°
2026-05-05 21:06 36.96327 -109.36657 38725 ft 531 kts 62°
2026-05-05 21:06 36.99798 -109.28568 38727 ft 531 kts 62°
2026-05-05 21:07 37.03286 -109.20421 38726 ft 531 kts 62°
2026-05-05 21:07 37.06771 -109.12259 38727 ft 531 kts 62°
2026-05-05 21:08 37.10257 -109.04075 38730 ft 532 kts 62°
2026-05-05 21:08 37.13723 -108.95917 38734 ft 529 kts 62°
2026-05-05 21:09 37.17148 -108.87834 38726 ft 528 kts 62°
2026-05-05 21:09 37.20590 -108.79693 38736 ft 528 kts 62°
2026-05-05 21:10 37.24028 -108.71540 38732 ft 530 kts 62°
2026-05-05 21:10 37.27474 -108.63347 38912 ft 531 kts 62°
2026-05-05 21:11 37.30915 -108.55143 38911 ft 531 kts 62°
2026-05-05 21:11 37.34325 -108.46994 38889 ft 531 kts 62°
2026-05-05 21:12 37.37761 -108.38762 38854 ft 533 kts 62°
2026-05-05 21:12 37.41203 -108.30495 38819 ft 534 kts 62°
2026-05-05 21:13 37.44641 -108.22214 38782 ft 534 kts 62°
2026-05-05 21:13 37.48072 -108.13930 38789 ft 533 kts 63°
2026-05-05 21:14 37.51459 -108.05730 38792 ft 530 kts 63°
2026-05-05 21:14 37.54854 -107.97492 38796 ft 529 kts 63°
2026-05-05 21:15 37.58240 -107.89247 38795 ft 530 kts 63°
2026-05-05 21:15 37.61624 -107.80997 38801 ft 529 kts 63°
2026-05-05 21:16 37.64969 -107.72807 38795 ft 530 kts 63°
2026-05-05 21:16 37.68356 -107.64505 38803 ft 533 kts 63°
2026-05-05 21:17 37.71732 -107.56198 38793 ft 531 kts 63°
2026-05-05 21:17 37.75238 -107.47979 38812 ft 530 kts 49°
2026-05-05 21:18 37.80383 -107.41487 38790 ft 525 kts 37°
2026-05-05 21:18 37.85911 -107.35455 38782 ft 526 kts 41°
2026-05-05 21:19 37.91130 -107.28978 38763 ft 524 kts 40°
2026-05-05 21:19 37.96525 -107.22774 38759 ft 524 kts 40°
2026-05-05 21:20 38.00917 -107.17475 38753 ft 525 kts 40°
2026-05-05 21:20 38.07115 -107.10137 38739 ft 524 kts 40°
2026-05-05 21:21 38.12427 -107.03783 38723 ft 524 kts 40°
2026-05-05 21:21 38.16630 -106.98202 38722 ft 529 kts 47°
2026-05-05 21:22 38.22082 -106.89835 38738 ft 529 kts 48°
2026-05-05 21:22 38.26821 -106.82693 38714 ft 529 kts 47°
2026-05-05 21:23 38.30770 -106.76659 38711 ft 529 kts 48°
2026-05-05 21:23 38.35447 -106.69510 38705 ft 529 kts 47°
2026-05-05 21:24 38.40171 -106.62296 38681 ft 530 kts 48°
2026-05-05 21:24 38.44876 -106.55068 38688 ft 529 kts 48°
2026-05-05 21:25 38.49580 -106.47850 38677 ft 529 kts 48°
2026-05-05 21:25 38.54249 -106.40651 38559 ft 531 kts 48°
2026-05-05 21:26 38.56614 -106.37006 37931 ft 535 kts 48°
2026-05-05 21:26 38.58990 -106.33337 37326 ft 536 kts 47°
2026-05-05 21:26 38.61358 -106.29671 36711 ft 531 kts 48°
2026-05-05 21:26 38.63682 -106.26068 36102 ft 519 kts 48°
2026-05-05 21:27 38.65962 -106.22535 35484 ft 510 kts 47°
2026-05-05 21:27 38.68226 -106.19071 34861 ft 508 kts 46°
2026-05-05 21:27 38.70516 -106.15612 34233 ft 512 kts 46°
2026-05-05 21:27 38.72813 -106.12114 33503 ft 510 kts 47°
2026-05-05 21:28 38.75022 -106.08701 32853 ft 499 kts 47°
2026-05-05 21:28 38.77221 -106.05315 32193 ft 489 kts 47°
2026-05-05 21:28 38.79382 -106.02012 31556 ft 479 kts 47°
2026-05-05 21:28 38.81493 -105.98782 30921 ft 469 kts 47°
2026-05-05 21:29 38.83566 -105.95589 30273 ft 461 kts 47°
2026-05-05 21:29 38.85598 -105.92451 29347 ft 453 kts 47°
2026-05-05 21:29 38.87592 -105.89381 28755 ft 443 kts 47°
2026-05-05 21:29 38.89540 -105.86380 28169 ft 433 kts 47°
2026-05-05 21:30 38.91415 -105.83462 27609 ft 425 kts 47°
2026-05-05 21:30 38.93267 -105.80559 27057 ft 417 kts 47°
2026-05-05 21:30 38.95101 -105.77697 26564 ft 411 kts 47°
2026-05-05 21:30 38.96907 -105.74887 26004 ft 405 kts 47°
2026-05-05 21:31 38.98687 -105.72109 25470 ft 399 kts 47°
2026-05-05 21:31 39.00436 -105.69370 24949 ft 395 kts 47°
2026-05-05 21:31 39.02168 -105.66659 24613 ft 389 kts 47°
2026-05-05 21:31 39.03901 -105.63966 24310 ft 395 kts 47°
2026-05-05 21:32 39.05672 -105.61232 23568 ft 399 kts 47°
2026-05-05 21:32 39.07383 -105.58570 23278 ft 387 kts 47°
2026-05-05 21:32 39.09074 -105.55928 22820 ft 378 kts 47°
2026-05-05 21:32 39.10750 -105.53320 22410 ft 381 kts 47°
2026-05-05 21:33 39.12433 -105.50703 21981 ft 375 kts 47°
2026-05-05 21:33 39.14085 -105.48123 21645 ft 375 kts 47°
2026-05-05 21:33 39.15747 -105.45524 21227 ft 374 kts 47°
2026-05-05 21:33 39.17372 -105.42940 20809 ft 369 kts 48°
2026-05-05 21:34 39.18969 -105.40387 20409 ft 371 kts 47°
2026-05-05 21:34 39.20582 -105.37822 20005 ft 367 kts 47°
2026-05-05 21:34 39.22195 -105.35266 19638 ft 369 kts 47°
2026-05-05 21:34 39.23800 -105.32713 19244 ft 363 kts 48°
2026-05-05 21:35 39.25385 -105.30184 18829 ft 360 kts 48°
2026-05-05 21:35 39.26942 -105.27699 18434 ft 352 kts 47°
2026-05-05 21:35 39.28318 -105.25106 18033 ft 353 kts 68°
2026-05-05 21:35 39.28948 -105.22002 17638 ft 361 kts 79°
2026-05-05 21:36 39.29302 -105.18836 17247 ft 352 kts 84°
2026-05-05 21:36 39.29590 -105.15712 16860 ft 351 kts 83°
2026-05-05 21:36 39.29947 -105.12645 16520 ft 341 kts 81°
2026-05-05 21:36 39.30326 -105.09706 16165 ft 329 kts 81°
2026-05-05 21:37 39.30670 -105.06846 15807 ft 314 kts 82°
2026-05-05 21:37 39.30981 -105.04089 15468 ft 302 kts 82°
2026-05-05 21:37 39.31285 -105.01460 15141 ft 297 kts 82°
2026-05-05 21:37 39.31709 -104.98889 14889 ft 289 kts 76°
2026-05-05 21:38 39.32179 -104.96377 14693 ft 286 kts 78°
2026-05-05 21:38 39.32621 -104.93886 14495 ft 284 kts 77°
2026-05-05 21:38 39.33081 -104.91395 14319 ft 285 kts 77°
2026-05-05 21:38 39.33548 -104.88915 14123 ft 284 kts 78°
2026-05-05 21:39 39.34110 -104.86477 13903 ft 283 kts 72°
2026-05-05 21:39 39.34697 -104.84153 13691 ft 259 kts 74°
2026-05-05 21:39 39.35210 -104.82048 13418 ft 240 kts 74°
2026-05-05 21:39 39.35712 -104.80040 13171 ft 232 kts 73°
2026-05-05 21:40 39.36258 -104.78105 13020 ft 224 kts 67°
2026-05-05 21:40 39.36836 -104.76215 13030 ft 229 kts 71°
2026-05-05 21:40 39.37377 -104.74295 13028 ft 226 kts 71°
2026-05-05 21:40 39.37938 -104.72390 13055 ft 227 kts 70°
2026-05-05 21:41 39.38522 -104.70500 13055 ft 227 kts 65°
2026-05-05 21:41 39.39548 -104.69012 13072 ft 224 kts 32°
2026-05-05 21:41 39.40872 -104.67922 13060 ft 224 kts 28°
2026-05-05 21:41 39.42220 -104.66913 13066 ft 224 kts 23°
2026-05-05 21:42 39.43667 -104.66513 13069 ft 215 kts 355°
2026-05-05 21:42 39.45185 -104.66493 12784 ft 217 kts 355°
2026-05-05 21:42 39.46673 -104.66484 12474 ft 211 kts 356°
2026-05-05 21:42 39.48134 -104.66470 12196 ft 211 kts 356°
2026-05-05 21:43 39.49595 -104.66453 11918 ft 209 kts 357°
2026-05-05 21:43 39.51048 -104.66435 11653 ft 210 kts 358°
2026-05-05 21:43 39.52502 -104.66419 11369 ft 209 kts 358°
2026-05-05 21:43 39.53931 -104.66400 11090 ft 205 kts 359°
2026-05-05 21:44 39.55367 -104.66384 10829 ft 210 kts 359°
2026-05-05 21:44 39.56814 -104.66368 10547 ft 204 kts
2026-05-05 21:44 39.58195 -104.66352 10264 ft 193 kts
2026-05-05 21:44 39.59551 -104.66335 9971 ft 196 kts
2026-05-05 21:45 39.60878 -104.66321 9706 ft 186 kts
2026-05-05 21:45 39.62152 -104.66307 9531 ft 181 kts
2026-05-05 21:45 39.63398 -104.66293 9342 ft 178 kts
2026-05-05 21:45 39.64624 -104.66279 9133 ft 175 kts
2026-05-05 21:46 39.65827 -104.66262 8885 ft 175 kts
2026-05-05 21:46 39.67040 -104.66246 8648 ft 173 kts
2026-05-05 21:46 39.68233 -104.66233 8417 ft 170 kts
2026-05-05 21:46 39.69403 -104.66219 8185 ft 167 kts
2026-05-05 21:47 39.70558 -104.66204 7955 ft 164 kts
2026-05-05 21:47 39.71694 -104.66191 7736 ft 163 kts
2026-05-05 21:47 39.72815 -104.66177 7517 ft 160 kts
2026-05-05 21:47 39.73911 -104.66165 7307 ft 158 kts
2026-05-05 21:48 39.75009 -104.66154 7098 ft 158 kts
2026-05-05 21:48 39.76098 -104.66139 6892 ft 156 kts
2026-05-05 21:48 39.77177 -104.66127 6723 ft 154 kts
2026-05-05 21:48 39.78243 -104.66115 6492 ft 152 kts
2026-05-05 21:49 39.79293 -104.66102 6251 ft 150 kts
2026-05-05 21:49 39.80336 -104.66084 6005 ft 151 kts
2026-05-05 21:49 39.81395 -104.66069 5766 ft 154 kts
2026-05-05 21:49 39.82470 -104.66057 5569 ft 155 kts
2026-05-05 21:50 39.83528 -104.66058 5432 ft 140 kts
2026-05-05 21:50 39.84273 -104.66029 5415 ft 76 kts 356°
2026-05-05 21:50 39.84622 -104.66045 5408 ft 27 kts 352°
2026-05-05 21:50 39.84680 -104.66056 5407 ft 0 kts 350°
2026-05-05 21:52 39.84764 -104.66085 5406 ft 14 kts 340°
2026-05-05 21:52 39.84874 -104.66137 5403 ft 19 kts 339°
2026-05-05 21:52 39.85008 -104.66209 5401 ft 24 kts 339°
2026-05-05 21:53 39.85143 -104.66241 5395 ft 21 kts
2026-05-05 21:53 39.85301 -104.66235 5393 ft 24 kts
2026-05-05 21:53 39.85478 -104.66233 5393 ft 26 kts
2026-05-05 21:53 39.85619 -104.66226 5392 ft 4 kts
2026-05-05 21:54 39.85638 -104.66230 5394 ft 6 kts 347°
2026-05-05 21:54 39.85677 -104.66286 5390 ft 11 kts 277°
2026-05-05 21:54 39.85679 -104.66410 5385 ft 11 kts 269°
2026-05-05 21:54 39.85728 -104.66487 5382 ft 13 kts
2026-05-05 21:55 39.85827 -104.66486 5382 ft 16 kts
2026-05-05 21:55 39.85935 -104.66485 5383 ft 13 kts 360°
2026-05-05 21:55 39.86017 -104.66517 5381 ft 13 kts 307°
2026-05-05 21:55 39.86057 -104.66634 5379 ft 16 kts 273°
2026-05-05 21:56 39.86057 -104.66781 5377 ft 16 kts 269°
2026-05-05 21:56 39.86022 -104.66928 5378 ft 18 kts 247°
2026-05-05 21:56 39.86009 -104.67063 5379 ft 7 kts 265°
2026-05-05 21:56 39.85991 -104.67086 5379 ft 2 kts 186°
2026-05-05 21:57 39.85968 -104.67086 5381 ft 5 kts 179°
2026-05-05 21:57 39.85931 -104.67085 5381 ft 0 kts 180°
2026-05-05 21:57 39.85930 -104.67085 5381 ft 0 kts 180°